Regional Weather Roundup
Issued by NWS Jackson, KY

Home | Current Version | Previous Version | Graphics & Text | Print | Product List | Glossary On
Versions: 1 2 3 4 5 6 7 8 9 10 11 12 13 14 15 16 17 18 19 20 21 22 23 24 25 26 27 28 29 30 31 32 33 34 35 36 37 38 39 40 41 42 43 44 45 46 47 48 49 50
000
ASUS43 KJKL 210819
RWRJKL

EAST KENTUCKY HOURLY WEATHER ROUNDUP
NATIONAL WEATHER SERVICE JACKSON KY
300 AM EST SUN DEC 21 2014

NOTE: "FAIR" INDICATES FEW OR NO CLOUDS BELOW 12,000 FEET WITH
NO SIGNIFICANT WEATHER AND/OR OBSTRUCTIONS TO VISIBILITY.

* THESE REPORTS ARE NOT UNDER NWS QUALITY CONTROL AND MAY NOT
  REPORT WEATHER SUCH AS PRECIPITATION AND FOG.

KYZ079-080-083-085-087-088-110-112-115-119-120-210900
...EASTERN KENTUCKY...

CITY           SKY/WX    TMP DP  RH WIND       PRES   REMARKS
JACKSON        CLEAR     27  21  78 NE3       30.26R
LONDON         CLEAR     25  32 100 CALM      30.26R
SOMERSET*      CLEAR     23  23 100 CALM      30.28S FOG
MONTICELLO*    CLEAR     19  17  92 CALM      30.29S
MIDDLESBORO*   CLEAR     26  25  96 CALM      30.26S
HARLAN APT*    SUNNY     28  28 100 CALM      30.24S
HAZARD APT*    SUNNY     27  27 100 CALM      30.26R FOG
BLACK MTN*       N/A     25  23  93 N2          N/A
PIKEVILLE APT* CLEAR     28  25  86 N3        30.24S
BIG SANDY*     SUNNY     28  26  91 CALM      30.27R
MOREHEAD APT*  CLOUDY    30  28  93 CALM      30.31R
ASHLAND*       CLOUDY    32  25  74 CALM      30.29R
$$

KYZ035-036-041-042-044-050-067-078-099-210900
...CENTRAL KENTUCKY...

CITY           SKY/WX    TMP DP  RH WIND       PRES   REMARKS
MT STERLING*   CLEAR     27  25  93 CALM      30.30S FOG
FLEMING/MASON* CLOUDY    30  27  86 NE3       30.30S FOG
DANVILLE*      CLEAR     21  21 100 CALM      30.29S
RICHMOND*      CLEAR     23  21  93 CALM      30.27S
LEXINGTON      CLEAR     23  21  92 CALM      30.28S FOG
FRANKFORT      CLEAR     21  18  88 CALM      30.28R
$$

KYZ091>093-OHZ055-061-077-WVZ005-015-034-035-042-210900
...SOUTHERN OHIO/WEST VIRGINIA...

CITY           SKY/WX    TMP DP  RH WIND       PRES   REMARKS
COVINGTON      CLOUDY    31  21  66 CALM      30.29R
COLUMBUS       CLOUDY    30  24  78 CALM      30.30R
DAYTON         MOCLDY    26  21  81 CALM      30.30R HAZE
WILMINGTON     CLOUDY    23  20  88 CALM      30.29S FOG
HUNTINGTON     CLOUDY    30  26  85 CALM      30.29R
CHARLESTON     CLOUDY    32  26  78 CALM      30.27S
PINEVILLE*     CLOUDY    35  34  99 MISG      30.28S
BECKLEY        CLOUDY    31  26  82 CALM      30.20R
BLUEFIELD      CLOUDY    33  29  85 CALM      30.19S
$$

VAZ002-007-008-TNZ017-027-036-066-071-210900
...SOUTHWEST VIRGINIA/EAST TENNESSEE...

CITY           SKY/WX    TMP DP  RH WIND       PRES   REMARKS
WISE*          CLEAR     32  32 100 CALM      30.20S
JONESVILLE*    SUNNY     25  25 100 CALM      30.26S
ABINGDON*      CLOUDY    39  37  94 CALM      30.20F FOG
BRISTOL        CLOUDY    38  36  92 CALM      30.22F FOG
KNOXVILLE      MOCLDY    39  32  76 NE6       30.23S WCI  35
OAK RIDGE      CLEAR     29  27  92 CALM      30.25S
CROSSVILLE     CLEAR     30  23  75 CALM      30.21S
NASHVILLE      CLEAR     29  26  89 CALM      30.26S
$$

...KEY TO REMARKS...
VSB - VISIBILITY IN MILES
WCI - WIND CHILL INDEX
HX  - HEAT INDEX

$$



USA.gov is the U.S. government's official web portal to all federal, state and local government web resources and services.